[[{"header":{"parameterUnit":"m.s-1","parameterCategory":1,"la1":30.2991,"la2":30.254,"lo1":-89.0895,"lo2":-89.0444,"dy":0.0017,"dx":0.0017,"nx":28,"ny":28,"refTime":"2024-08-15T09:00:00:Z","depth":0,"parameterNumber":2,"parameterNumberName":"U-component_of_WINDS"},"data":[0,0,0,0,0,0,0,0,0,0,0,0,0,0,0,0,0,0,0,0,0,0,0,0,0,0,0,0,0,0,0,0,0,0,0,0,0,0,0,0,0,0,0,0,0,0,0,0,0,0,0,0,0,0,0,0,0,0,-0.1227,-0.1227,0,-0.1245,-0.1245,-0.1245,-0.1229,-0.1228,-0.1227,-0.1227,-0.1247,-0.1248,-0.1249,0,0,0,0,0,0,0,0,0,0,0,0,0,-0.1182,-0.1183,-0.1227,-0.1227,-0.1228,-0.1245,-0.1245,-0.1245,-0.1229,-0.1228,-0.1227,-0.1226,-0.1247,-0.1248,-0.1249,0,0,0,0,0,0,0,0,0,0,0,0,0,-0.1201,-0.1183,-0.1227,-0.1221,-0.1221,-0.1245,-0.1245,-0.1245,-0.1229,-0.1228,-0.1227,-0.1226,-0.1246,-0.1248,-0.125,-0.1281,0,0,-0.1255,-0.1256,0,0,0,0,0,0,0,0,-0.12,-0.1202,-0.1222,-0.1222,-0.1221,-0.1234,-0.1237,-0.1257,-0.1229,-0.1226,-0.1227,-0.1226,-0.1244,-0.1245,-0.1251,-0.1282,-0.1283,-0.1255,-0.1256,-0.1257,-0.1257,0,0,0,0,0,0,0,-0.1198,-0.1202,-0.1234,-0.1222,-0.1222,-0.1219,-0.122,-0.124,-0.124,-0.1226,-0.1225,-0.1227,-0.1243,-0.1249,-0.1251,-0.1283,-0.1255,-0.1257,-0.1258,-0.1258,-0.1342,-0.1343,0,0,0,0,0,0,-0.1197,-0.1201,-0.1234,-0.1235,-0.1208,-0.122,-0.1222,-0.1231,-0.124,-0.124,-0.1228,-0.1226,-0.1247,-0.1249,-0.1252,-0.1291,-0.1257,-0.1259,-0.126,-0.1341,-0.1342,-0.1343,0,0,0,0,0,0,-0.1196,-0.12,-0.1233,-0.1217,-0.1221,-0.1222,-0.1232,-0.1232,-0.1238,-0.1241,-0.1242,-0.1234,-0.1246,-0.125,-0.1274,-0.1291,-0.1259,-0.1261,-0.1339,-0.1341,-0.1343,-0.1367,0,0,0,0,0,0,-0.1195,-0.12,-0.1211,-0.1218,-0.1222,-0.1254,-0.1233,-0.1233,-0.1241,-0.1239,-0.1247,-0.1248,-0.1246,-0.1271,-0.1276,-0.1293,-0.1262,-0.1338,-0.134,-0.1342,-0.1365,-0.1369,-0.1373,0,0,0,0,0,-0.1194,-0.1217,-0.1212,-0.1216,-0.1236,-0.1255,-0.1257,-0.1254,-0.1242,-0.1254,-0.1256,-0.1248,-0.1288,-0.1274,-0.1279,-0.1297,-0.1337,-0.1339,-0.1342,-0.1363,-0.1368,-0.1373,0,0,0,0,0,0,-0.1214,-0.1218,-0.1212,-0.1239,-0.1246,-0.1252,-0.1267,-0.126,-0.1272,-0.1269,-0.1265,-0.1267,-0.1293,-0.1297,-0.1281,-0.1328,-0.1311,-0.1314,-0.1325,-0.133,-0.1334,-0.1334,-0.1264,0,0,0,0,0,-0.1221,-0.1235,-0.1239,-0.1262,-0.1266,-0.1266,-0.1274,-0.127,-0.1279,-0.1282,-0.1286,-0.1295,-0.131,-0.132,-0.1334,-0.1365,-0.1367,-0.1379,-0.1384,-0.1387,-0.1391,-0.1409,-0.1415,-0.1352,-0.1352,-0.1352,0,0,-0.1237,-0.1241,-0.125,-0.1266,-0.1271,-0.1287,-0.1269,-0.1286,-0.1298,-0.1285,-0.1308,-0.1312,-0.1322,-0.135,-0.1362,-0.1354,-0.1409,-0.139,-0.1393,-0.1395,-0.1412,-0.1418,-0.1424,-0.1354,-0.1353,-0.1353,0,0,-0.1274,-0.1277,-0.1298,-0.1304,-0.1313,-0.1312,-0.1317,-0.1324,-0.1326,-0.1349,-0.134,-0.1355,-0.138,-0.1388,-0.1395,-0.1436,-0.1429,-0.1441,-0.1464,-0.1482,-0.1487,-0.1491,-0.1508,-0.1513,-0.1444,-0.1444,-0.1444,0,-0.1292,-0.1315,-0.1309,-0.1328,-0.1336,-0.1324,-0.1345,-0.1352,-0.1365,-0.1371,-0.1361,-0.1393,-0.1399,-0.143,-0.144,-0.1445,-0.1452,-0.144,-0.1486,-0.1491,-0.1495,-0.151,-0.1516,-0.1446,-0.1446,-0.1445,-0.1445,0,-0.1338,-0.1354,-0.137,-0.1383,-0.1392,-0.1412,-0.1411,-0.1421,-0.1417,-0.1418,-0.1443,-0.1449,-0.1465,-0.1472,-0.1468,-0.1502,-0.1497,-0.1487,-0.1469,-0.1502,-0.1517,-0.1523,-0.1448,-0.1447,-0.1447,-0.1447,0,0,-0.1389,-0.1399,-0.1405,-0.1411,-0.142,-0.1433,-0.1452,-0.1467,-0.1477,-0.1486,-0.1504,-0.1526,-0.1517,-0.1525,-0.1522,-0.1538,-0.1572,-0.1526,-0.1526,-0.1536,-0.1612,-0.1621,-0.1628,-0.1567,-0.1568,-0.1569,-0.1612,0,-0.1428,-0.1461,-0.1457,-0.149,-0.1506,-0.1495,-0.1513,-0.1521,-0.1523,-0.1537,-0.1539,-0.1555,-0.1541,-0.1546,-0.1561,-0.1565,-0.1588,-0.1561,-0.1585,-0.1586,-0.1584,-0.1636,-0.1645,-0.1686,-0.1618,-0.1619,-0.1619,0,-0.1477,-0.1489,-0.1523,-0.1531,-0.1537,-0.1553,-0.1567,-0.158,-0.1589,-0.159,-0.1599,-0.1594,-0.1615,-0.1596,-0.1627,-0.1609,-0.1618,-0.1621,-0.1623,-0.1626,-0.1606,-0.1642,-0.1699,-0.1705,-0.1628,-0.1627,-0.1627,0,-0.1513,-0.1537,-0.1561,-0.1566,-0.1575,-0.1587,-0.1591,-0.1599,-0.1609,-0.1621,-0.1628,-0.1642,-0.1651,-0.1663,-0.1662,-0.1648,-0.1694,-0.1675,-0.1696,-0.1696,-0.1707,-0.1707,-0.1768,-0.1711,-0.1711,-0.171,-0.171,0,-0.1558,-0.158,-0.1577,-0.1592,-0.1617,-0.1612,-0.1637,-0.164,-0.1648,-0.1664,-0.1655,-0.1671,-0.1668,-0.1684,-0.1684,-0.171,-0.1713,-0.1716,-0.1715,-0.1717,-0.1717,-0.1725,-0.1722,-0.1712,-0.1712,-0.1711,-0.1711,0,-0.1603,-0.1601,-0.1627,-0.1633,-0.1636,-0.1654,-0.166,-0.1675,-0.1675,-0.1696,-0.1701,-0.1703,-0.1722,-0.1722,-0.1743,-0.1743,-0.1775,-0.1771,-0.1772,-0.1772,-0.1794,-0.1793,-0.1863,-0.1873,-0.1808,-0.1808,-0.1809,0,-0.1632,-0.1649,-0.1657,-0.1667,-0.1672,-0.1688,-0.1698,-0.1694,-0.1705,-0.1717,-0.1731,-0.1748,-0.1763,-0.1793,-0.1797,-0.1814,-0.1811,-0.1834,-0.1813,-0.1815,-0.1814,-0.1813,-0.1816,-0.1839,-0.184,-0.184,-0.1841,0,-0.1685,-0.1684,-0.1697,-0.1712,-0.1723,-0.1734,-0.1745,-0.1753,-0.1751,-0.1764,-0.1782,-0.1793,-0.1815,-0.1833,-0.1849,-0.1855,-0.1849,-0.1847,-0.1854,-0.1856,-0.1857,-0.1859,-0.1785,-0.1846,-0.1846,-0.1845,-0.1845,-0.1845,-0.1724,-0.1739,-0.1747,-0.1764,-0.1771,-0.1781,-0.1795,-0.1798,-0.1813,-0.183,-0.1827,-0.1849,-0.1859,-0.188,-0.1887,-0.1904,-0.1896,-0.1905,-0.1907,-0.191,-0.1913,-0.1853,-0.1907,-0.1907,-0.1907,-0.1907,-0.1906,0,-0.1778,-0.1783,-0.1798,-0.1812,-0.1826,-0.1817,-0.1828,-0.184,-0.1858,-0.1868,-0.1882,-0.1904,-0.1922,-0.1927,-0.1945,-0.1958,-0.1956,-0.1963,-0.1963,-0.1965,-0.1918,-0.1912,-0.1965,-0.1965,-0.1965,-0.1965,-0.1965,-0.1965,-0.1808,-0.1833,-0.1833,-0.1862,-0.1867,-0.1887,-0.1895,-0.1904,-0.1912,-0.1937,-0.1952,-0.1955,-0.1963,-0.1981,-0.1998,-0.1999,-0.2007,-0.2016,-0.2016,-0.1974,-0.1968,-0.1962,-0.1956,-0.2017,-0.2017,-0.2061,-0.2062,-0.2062]},{"header":{"parameterUnit":"m.s-1","parameterCategory":1,"la1":30.2991,"la2":30.254,"lo1":-89.0895,"lo2":-89.0444,"dy":0.0017,"dx":0.0017,"nx":28,"ny":28,"refTime":"2024-08-15T09:00:00:Z","depth":0,"parameterNumber":3,"parameterNumberName":"V-component_of_WINDS"},"data":[0,0,0,0,0,0,0,0,0,0,0,0,0,0,0,0,0,0,0,0,0,0,0,0,0,0,0,0,0,0,0,0,0,0,0,0,0,0,0,0,0,0,0,0,0,0,0,0,0,0,0,0,0,0,0,0,0,0,2.6448,2.6448,0,2.6491,2.6492,2.6492,2.6468,2.6466,2.6465,2.6464,2.6506,2.6508,2.651,0,0,0,0,0,0,0,0,0,0,0,0,0,2.634,2.6342,2.6448,2.6448,2.6449,2.6491,2.6492,2.6492,2.6468,2.6466,2.6465,2.6464,2.6505,2.6508,2.651,0,0,0,0,0,0,0,0,0,0,0,0,0,2.6385,2.6343,2.6448,2.6442,2.6442,2.6491,2.6492,2.6492,2.6468,2.6466,2.6464,2.6463,2.6504,2.6508,2.6511,2.6568,0,0,2.6521,2.6523,0,0,0,0,0,0,0,0,2.6383,2.6389,2.6442,2.6442,2.6442,2.6472,2.6469,2.6518,2.6469,2.6458,2.6464,2.6462,2.6496,2.65,2.6512,2.657,2.6571,2.6521,2.6523,2.6525,2.6526,0,0,0,0,0,0,0,2.638,2.6387,2.6465,2.6443,2.6443,2.6436,2.644,2.6478,2.6486,2.6459,2.6457,2.6463,2.6496,2.6509,2.6513,2.6572,2.6521,2.6524,2.6526,2.6528,2.6676,2.6677,0,0,0,0,0,0,2.6377,2.6385,2.6463,2.6466,2.6408,2.6439,2.6444,2.6464,2.6486,2.6488,2.6464,2.6461,2.6504,2.6509,2.6514,2.658,2.6525,2.6528,2.653,2.6674,2.6676,2.6678,0,0,0,0,0,0,2.6375,2.6385,2.6462,2.6425,2.6434,2.6443,2.6466,2.6466,2.6479,2.649,2.6491,2.6476,2.6503,2.6509,2.6554,2.6581,2.6529,2.6533,2.6671,2.6674,2.6677,2.6713,0,0,0,0,0,0,2.6372,2.6384,2.6407,2.6426,2.6436,2.6502,2.6468,2.6468,2.6485,2.6482,2.6502,2.6503,2.6502,2.6549,2.6557,2.6585,2.6535,2.6669,2.6673,2.6676,2.671,2.6717,2.6723,0,0,0,0,0,2.6369,2.6415,2.6408,2.6418,2.6465,2.6504,2.651,2.6508,2.6488,2.651,2.6516,2.6503,2.6577,2.6554,2.6563,2.6592,2.6667,2.6672,2.6676,2.6706,2.6715,2.6723,0,0,0,0,0,0,2.6398,2.6418,2.641,2.6464,2.6483,2.65,2.6527,2.6518,2.6542,2.6537,2.6533,2.6538,2.6584,2.6593,2.6566,2.6646,2.6619,2.6625,2.6639,2.6648,2.6654,2.665,2.6538,0,0,0,0,0,2.6411,2.6442,2.6457,2.6504,2.6513,2.6519,2.6536,2.6533,2.6551,2.6558,2.6569,2.6586,2.6613,2.6631,2.6657,2.6711,2.6714,2.6735,2.6742,2.6748,2.6753,2.6779,2.6788,2.6692,2.6692,2.6692,0,0,2.6438,2.6453,2.6472,2.651,2.6524,2.6554,2.6525,2.656,2.6582,2.6563,2.6606,2.6614,2.6633,2.6682,2.6704,2.6691,2.678,2.6753,2.6758,2.6759,2.6785,2.6794,2.6802,2.6695,2.6695,2.6694,0,0,2.6503,2.6518,2.6557,2.6571,2.6593,2.6596,2.6605,2.6624,2.6628,2.6671,2.6657,2.6683,2.6731,2.6744,2.6758,2.6826,2.6813,2.6834,2.6869,2.6896,2.6903,2.691,2.6932,2.694,2.684,2.684,2.684,0,2.6533,2.658,2.6578,2.6613,2.6629,2.6614,2.6653,2.6667,2.6695,2.6706,2.6691,2.6749,2.6761,2.6812,2.6828,2.684,2.6849,2.6831,2.6902,2.6909,2.6915,2.6936,2.6945,2.6842,2.6842,2.6841,2.6841,0,2.6615,2.6647,2.6676,2.6704,2.6724,2.676,2.6763,2.6782,2.6777,2.6782,2.6824,2.6838,2.6866,2.6878,2.6874,2.6928,2.6918,2.6903,2.6875,2.6927,2.6946,2.6954,2.6845,2.6844,2.6844,2.6843,0,0,2.6699,2.6725,2.6735,2.6747,2.6769,2.6793,2.6829,2.6856,2.6872,2.6892,2.6919,2.696,2.6945,2.696,2.6957,2.698,2.703,2.6962,2.6962,2.6972,2.7088,2.7098,2.7108,2.7023,2.7025,2.7026,2.7086,0,2.6763,2.6825,2.6824,2.6881,2.6909,2.6895,2.6925,2.6941,2.6946,2.697,2.6975,2.7003,2.6983,2.6991,2.7014,2.702,2.7053,2.7016,2.7047,2.7048,2.704,2.7118,2.7129,2.7185,2.7094,2.7095,2.7096,0,2.6846,2.6868,2.6928,2.6944,2.6956,2.6983,2.7007,2.7031,2.7048,2.705,2.7066,2.7059,2.7093,2.7065,2.711,2.7085,2.7097,2.7102,2.7104,2.7105,2.7074,2.7119,2.7203,2.7211,2.7108,2.7107,2.7106,0,2.6898,2.6943,2.6984,2.6995,2.7016,2.7035,2.7044,2.706,2.7075,2.7096,2.7106,2.713,2.7143,2.7161,2.716,2.7141,2.7206,2.7178,2.7206,2.7206,2.7219,2.7218,2.7304,2.7231,2.7231,2.7231,2.723,0,2.6968,2.7005,2.7008,2.7033,2.7073,2.7071,2.711,2.7117,2.7131,2.7156,2.7146,2.7169,2.7168,2.7191,2.719,2.7227,2.7233,2.7234,2.7233,2.7234,2.7233,2.7241,2.7236,2.7233,2.7232,2.7232,2.7232,0,2.7033,2.7037,2.708,2.7096,2.7101,2.7129,2.7142,2.7165,2.7169,2.72,2.7207,2.7213,2.724,2.7241,2.7272,2.7272,2.7315,2.7311,2.7309,2.7308,2.7335,2.7331,2.7427,2.7438,2.736,2.7361,2.7361,0,2.7076,2.7104,2.7123,2.7139,2.7149,2.7176,2.7192,2.7191,2.7207,2.7228,2.7248,2.7274,2.7294,2.7338,2.7344,2.7367,2.7362,2.7393,2.7365,2.7364,2.7359,2.7357,2.7358,2.7398,2.7399,2.74,2.74,0,2.7153,2.7153,2.7177,2.7201,2.722,2.7239,2.7257,2.727,2.7271,2.729,2.7317,2.7333,2.7364,2.7389,2.7412,2.742,2.7409,2.741,2.7417,2.7417,2.7414,2.7413,2.7322,2.7407,2.7406,2.7406,2.7406,2.7405,2.7206,2.723,2.7246,2.7272,2.7285,2.7301,2.7323,2.733,2.7353,2.7378,2.7376,2.7406,2.742,2.7449,2.7459,2.7481,2.747,2.7481,2.7484,2.7486,2.7488,2.7412,2.7486,2.7485,2.7485,2.7485,2.7485,0,2.728,2.729,2.7314,2.7339,2.7359,2.7349,2.7367,2.7384,2.7411,2.7426,2.7446,2.7476,2.75,2.7508,2.7531,2.7547,2.7543,2.7553,2.7551,2.7552,2.7498,2.7488,2.7556,2.7556,2.7556,2.7556,2.7556,2.7556,2.7321,2.7358,2.736,2.7404,2.7413,2.7442,2.7453,2.7468,2.7479,2.7514,2.7534,2.7539,2.7551,2.7574,2.7595,2.7597,2.7604,2.7616,2.7615,2.7564,2.7556,2.755,2.754,2.7618,2.7618,2.7668,2.7668,2.7669]}]]